Change the Weather History Date:

Sunday, November 10, 2013

  Actual Average Record
Temperature  
Mean Temperature 46 °F -  
Max Temperature 50 °F - - ()
Min Temperature 42 °F - - ()
Degree Days  
Heating Degree Days 19    
Moisture  
Dew Point 42 °F    
Average Humidity 83    
Maximum Humidity 90    
Minimum Humidity 70    
Precipitation  
Precipitation 0.01 in - - ()
Sea Level Pressure  
Sea Level Pressure 30.18 in    
Wind  
Wind Speed 2 mph ()    
Max Wind Speed 4 mph    
Max Gust Speed -    
T = Trace of Precipitation, MM = Missing Value Source: Averaged Metar Reports

Daily Weather History Graph

Daily Weather History Graph

Search for Another Location

Airport or City:

Trip Planner

Search our weather history database for the weather conditions in past years. The results will help you decide how hot, cold, wet, or windy it might be!

Date:

Astronomy

Nov. 10, 2013 Rise Set
Actual Time 7:13 AM PST 4:36 PM PST
Civil Twilight 6:39 AM PST 5:10 PM PST
Nautical Twilight 6:01 AM PST 5:48 PM PST
Astronomical Twilight 5:23 AM PST 6:25 PM PST
Moon 1:17 PM PST (11/10) No Moon Set
Length of Visible Light 10h 31m
Length of Day
9h 22m
First Quarter, 56% of the Moon is Illuminated
Nov 10
First Quarter
Nov 17
Full
Nov 25
Last Quarter
Dec 2
New
Dec 9
First Quarter

Hourly Weather History & Observations

Time (PST) Temp. Windchill Dew Point Humidity Pressure Visibility Wind Dir Wind Speed Gust Speed Precip Events Conditions
12:00 AM 45.7 °F - 42.1 °F 87% 30.17 in - NNE 2.3 mph - N/A   Unknown
1:00 AM 45.7 °F - 41.7 °F 86% 30.16 in - NNE 1.2 mph - N/A   Unknown
2:00 AM 45.3 °F - 41.4 °F 86% 30.17 in - ENE 1.2 mph - N/A   Unknown
3:00 AM 45.3 °F - 41.5 °F 87% 30.17 in - NNE 1.2 mph - N/A   Unknown
4:00 AM 46 °F - 42 °F 80% 30.17 in - North 3.5 mph - -  
4:00 AM 46.0 °F 44.8 °F 41.7 °F 85% 30.17 in - North 3.5 mph - N/A   Unknown
5:00 AM 45.1 °F 43.7 °F 41.2 °F 86% 30.17 in - North 3.5 mph - N/A   Unknown
6:00 AM 44.1 °F - 40.5 °F 87% 30.17 in - NE 1.2 mph - N/A   Unknown
7:00 AM 43.0 °F - 39.9 °F 89% 30.17 in - NE 1.2 mph - N/A   Unknown
8:00 AM 44.1 °F - 41.4 °F 90% 30.18 in - North 2.3 mph - N/A   Unknown
9:00 AM 44.6 °F - 41.4 °F 88% 30.19 in - NE 1.2 mph - N/A   Unknown
10:00 AM 46 °F - 42 °F 80% 30.20 in - North 3.5 mph - -  
10:00 AM 45.9 °F 44.6 °F 41.7 °F 85% 30.20 in - North 3.5 mph - N/A   Unknown
11:00 AM 47.1 °F - 41.9 °F 82% 30.21 in - Calm Calm - N/A   Unknown
12:00 PM 48.0 °F - 42.1 °F 80% 30.20 in - SSW 1.2 mph - N/A   Unknown
1:00 PM 49.1 °F - 41.2 °F 74% 30.19 in - West 1.2 mph - N/A   Unknown
2:00 PM 49.8 °F - 41.7 °F 74% 30.19 in - WSW 1.2 mph - N/A   Unknown
3:00 PM 50.2 °F - 41.9 °F 73% 30.19 in - North 2.3 mph - N/A   Unknown
4:00 PM 49 °F - 42 °F 70% 30.19 in - North 1.2 mph - -  
4:00 PM 49.3 °F - 42.3 °F 77% 30.19 in - North 1.2 mph - N/A   Unknown
5:00 PM 48.2 °F - 42.6 °F 81% 30.19 in - North 1.2 mph - N/A   Unknown
6:00 PM 48.0 °F - 42.6 °F 82% 30.19 in - North 2.3 mph - N/A   Unknown
7:00 PM 47.7 °F - 43.0 °F 84% 30.20 in - Calm Calm - N/A   Unknown
8:00 PM 47.1 °F - 43.5 °F 87% 30.19 in - NE 1.2 mph - 0.01 in   Unknown
9:00 PM 46.9 °F - 42.8 °F 86% 30.19 in - North 2.3 mph - N/A   Unknown
10:00 PM 47 °F - 42 °F 78% 30.19 in - NE 1.2 mph - -  
10:00 PM 46.9 °F - 42.3 °F 84% 30.19 in - NE 1.2 mph - N/A   Unknown
11:00 PM 46.6 °F - 42.4 °F 85% 30.19 in - Calm Calm - N/A   Unknown